Weather History for Montreal Mirabel, QC

Change the Weather History Date:

Saturday, January 11, 2014

  Actual Average Record
Temperature  
Mean Temperature 29 °F -  
Max Temperature 41 °F 17 °F 41 °F (2014)
Min Temperature 17 °F 3 °F -16 °F (1999)
Degree Days  
Heating Degree Days 36    
Moisture  
Dew Point 28 °F    
Average Humidity 95    
Maximum Humidity 100    
Minimum Humidity 80    
Precipitation  
Precipitation 0.00 in - - ()
Sea Level Pressure  
Sea Level Pressure 29.55 in    
Wind  
Wind Speed 6 mph ()    
Max Wind Speed 14 mph    
Max Gust Speed 17 mph    
Visibility 3.2 miles    
Events Fog , Rain , Snow    
Averages and records for this station are not official NWS values.
T = Trace of Precipitation, MM = Missing Value Source: Averaged Metar Reports

Daily Weather History Graph

Daily Weather History Graph

Search for Another Location

Airport:

Trip Planner

Search our weather history database for the weather conditions in past years. The results will help you decide how hot, cold, wet, or windy it might be!

Date:

Astronomy

Jan. 11, 2014 Rise Set
Actual Time 7:34 AM EST 4:33 PM EST
Civil Twilight 7:01 AM EST 5:07 PM EST
Nautical Twilight 6:24 AM EST 5:44 PM EST
Astronomical Twilight 5:48 AM EST 6:19 PM EST
Moon 1:18 PM EST (1/11) 3:34 AM EST (1/11)
Length of Visible Light 10h 05m
Length of Day
8h 58m
Waxing Gibbous, 83% of the Moon is Illuminated
Jan 11
Waxing Gibbous
Jan 15
Full
Jan 24
Last Quarter
Jan 30
New
Feb 6
First Quarter

Hourly Weather History & Observations

Time (EST) Temp. Windchill Dew Point Humidity Pressure Visibility Wind Dir Wind Speed Gust Speed Precip Events Conditions
12:00 AM 17.6 °F 7.3 °F 14.0 °F 86% 30.16 in 20.0 mi NE 8.1 mph - N/A   Overcast
1:00 AM 19.4 °F 10.4 °F 14.0 °F 80% 30.13 in 10.0 mi NE 6.9 mph - N/A   Overcast
2:00 AM 19.4 °F 9.5 °F 15.8 °F 86% 30.10 in 8.0 mi ENE 8.1 mph - N/A   Overcast
3:00 AM 19.4 °F 11.5 °F 15.8 °F 86% 30.06 in 8.0 mi NE 5.8 mph - N/A   Overcast
4:00 AM 19.4 °F 12.8 °F 15.8 °F 86% 29.99 in 8.0 mi NE 4.6 mph - N/A   Overcast
4:40 AM 21.2 °F 14.9 °F 17.6 °F 86% 29.97 in 7.0 mi NE 4.6 mph - N/A   Overcast
5:00 AM 21.2 °F 13.6 °F 17.6 °F 86% 29.94 in 8.0 mi NE 5.8 mph - N/A   Overcast
5:24 AM 21.2 °F 12.6 °F 17.6 °F 86% 29.90 in 5.0 mi NE 6.9 mph - N/A Rain , Snow Light Freezing Rain
6:00 AM 23.0 °F 10.6 °F 21.2 °F 93% 29.86 in 2.5 mi ENE 13.8 mph - N/A Rain Light Freezing Rain
7:00 AM 24.8 °F 15.3 °F 23.0 °F 93% 29.80 in 2.5 mi NE 9.2 mph - N/A Rain Light Freezing Rain
7:26 AM 24.8 °F 16.1 °F 23.0 °F 93% 29.76 in 2.0 mi ENE 8.1 mph 17.3 mph N/A Rain Light Freezing Rain
8:00 AM 24.8 °F 16.1 °F 23.0 °F 93% 29.73 in 2.0 mi ENE 8.1 mph - N/A Rain Light Freezing Rain
9:00 AM 24.8 °F 20.5 °F 24.8 °F 100% 29.68 in 2.0 mi North 3.5 mph - N/A Rain Light Freezing Rain
10:00 AM 26.6 °F 19.1 °F 24.8 °F 93% 29.63 in 2.0 mi NE 6.9 mph - N/A Rain Light Freezing Rain
10:32 AM 26.6 °F 20.0 °F 26.6 °F 100% 29.61 in 1.0 mi NE 5.8 mph - N/A Rain Light Freezing Rain
11:00 AM 28.4 °F 22.2 °F 26.6 °F 93% 29.57 in 0.8 mi NNE 5.8 mph - N/A Rain Light Freezing Rain
12:00 PM 30.2 °F 19.8 °F 30.2 °F 100% 29.51 in 0.8 mi NNE 13.8 mph - N/A Rain Light Freezing Rain
12:49 PM 32.0 °F 24.8 °F 32.0 °F 100% 29.47 in 0.8 mi NNE 8.1 mph - N/A Rain Light Rain
1:00 PM 32.0 °F 24.8 °F 32.0 °F 100% 29.45 in 1.0 mi NNE 8.1 mph - N/A Rain Light Rain
2:00 PM 32.0 °F 28.7 °F 32.0 °F 100% 29.39 in 0.8 mi NNE 3.5 mph - N/A Rain Light Rain
2:28 PM 32.0 °F 26.4 °F 32.0 °F 100% 29.36 in 0.8 mi NE 5.8 mph - N/A Rain Light Rain
3:00 PM 32.0 °F 26.4 °F 32.0 °F 100% 29.33 in 0.8 mi NE 5.8 mph - N/A Rain Light Rain
4:00 PM 33.8 °F 27.7 °F 32.0 °F 93% 29.29 in 1.0 mi NE 6.9 mph - N/A Rain Light Rain
5:00 PM 33.8 °F 28.6 °F 33.8 °F 100% 29.25 in 1.0 mi NNE 5.8 mph - N/A Rain Light Rain
6:00 PM 33.8 °F 30.8 °F 32.0 °F 93% 29.20 in 0.8 mi NE 3.5 mph - N/A Rain Light Rain
6:35 PM 33.8 °F - 33.8 °F 100% 29.19 in 0.5 mi NNE 2.3 mph - N/A Fog , Rain Light Rain
7:00 PM 33.8 °F 29.6 °F 33.8 °F 100% 29.15 in 0.5 mi NE 4.6 mph - N/A Fog , Rain Light Rain
8:00 PM 33.8 °F 29.6 °F 33.8 °F 100% 29.13 in 0.5 mi NNE 4.6 mph - N/A Fog , Rain Light Rain
9:00 PM 39.2 °F 35.0 °F 37.4 °F 93% 29.11 in 1.0 mi WSW 5.8 mph - N/A Rain Light Rain
9:19 PM 39.2 °F 35.0 °F 39.2 °F 100% 29.11 in 0.5 mi West 5.8 mph - N/A Fog , Rain Light Rain
10:00 PM 39.2 °F 35.0 °F 39.2 °F 100% 29.10 in 0.8 mi WSW 5.8 mph - N/A Rain Light Rain
10:29 PM 41.0 °F 35.2 °F 41.0 °F 100% 29.13 in 3.0 mi WSW 9.2 mph 17.3 mph N/A Rain Light Rain
11:00 PM 41.0 °F 34.3 °F 41.0 °F 100% 29.13 in 25.0 mi SW 11.5 mph - N/A Rain Light Rain